sat.trackr.live / text

‹ back to catalog

STARLINK-1781

NORAD 46685 · 2020-073R

PAYLOAD ACTIVE UNKNOWN

§ Identity

Operator
Country
US
Launch date
2020-10-18
Launch site
AFETR
Launch vehicle
Mass (kg)
RCS (m²)

Purposes: comms

External: N2YO · Heavens-Above · Gunter

§ Orbital elements

Epoch: 2026-05-25T05:20:19.929696Z

Period
91.73 min
Inclination
53.0446°
Eccentricity
0.0003131
Mean motion
15.69906480 rev/d
Perigee alt
357.1 km
Apogee alt
361.3 km
Semi-major
6,737.3 km
B*
7.5005e-4
RAAN
228.6241°
Arg perigee
303.6304°
Mean anomaly
56.4413°
Rev number
30,907

§ Raw data

STARLINK-17811 46685U 20073R   26145.22245289  .00092067  00000+0  75005-3 0  99962 46685  53.0446 228.6241 0003131 303.6304  56.4413 15.69906480309075

JSON: /api/v1/satellites/46685 · /tle

For live sub-satellite position, see the globe view (requires WebGL).

§ Visibility from observer

Set your observer location to see the next 7 days of passes ≥ 10°. The values pass through the URL so the page stays shareable.

No JS? Fill the form by hand. The geolocation button needs JavaScript.